map of DKR home
DKR - Airport
Location
City:  Dakar, Dakar, Senegal
Near (Alt.):Yoff
Name:Léopold Sédar Senghor International Airport
Old (Alt.):Dakar Yoff International Airport
ICAO:GOOY
IATA:DKR

Details
Type:Airport (Aerodrome, Airfield)
Use:Public/Civil, International (customs port of entry)
Latitude:14°44'38"N (14.743889)
Longitude:17°28'46"W (-17.479443)
Elevation:85 ft (26 m)
Variation:7.25°W (WMM2015 magnetic declination)
0.11° annual change
Runways:2
Longest:11450 × 148 ft (3490 × 45 m), paved

Time
Time Zone:UTC+0
Local Time:

Weather
METAR:GOOY 191400Z 08004KT 9999 FEW013 FEW016TCU 33/24 Q1012
TAF:GOOY 191130Z 1912/2018 18008KT 9999 SCT013= TAF GBYD 191130Z 1912/2018 20008KT 9999 SCT012 PROB30
TEMPO 1918/1922 4500 TSRA BKN012 FEW020CB

Related Locations
Nearby:
Farthest:OLJ: 12179 mi / 19600 km
Olpoi [North West Santo], Espíritu Santo Island, SAM, VU

Find:

   beyond  
but within

Other Information
Maps:
NOTAMs:
Links:
Sources:

  
  • flag of Senegal
  

Airport Diagram

Airport diagram for DKR

Larger airport diagram (OBSOLETE) from NGA

Sectional Chart

Flight Planning
at skyvector.com

Satellite Image

Google Maps Satellite view

 

Copyright © 2004-2018 Karl L. Swartz. All rights reserved.
The Great Circle Mapper name and logo are trademarks of the Great Circle Mapper.
All other trademarks mentioned herein belong to their respective owners.
Please see credits for attibutions and further copyright information.

  Follow gcmap on Facebook Follow gcmap on Twitter Follow gcmap on Google+ GCmap on LinkedIn

hCard Microformat

Geo Microformat